Year,Month,Day,Hour,Minute,Value (Times are PST for temperature in C)
2013,07,14,00,00,11.20
2013,07,14,00,01,11.10
2013,07,14,00,02,11.10
2013,07,14,00,03,11.10
2013,07,14,00,04,11.10
2013,07,14,00,05,11.00
2013,07,14,00,06,11.00
2013,07,14,00,07,11.00
2013,07,14,00,08,10.90
2013,07,14,00,09,10.90
2013,07,14,00,10,10.90
2013,07,14,00,11,10.80
2013,07,14,00,12,10.80
2013,07,14,00,13,10.80
2013,07,14,00,14,10.80
2013,07,14,00,15,10.70
2013,07,14,00,16,10.70
2013,07,14,00,17,10.70
2013,07,14,00,18,10.70
2013,07,14,00,19,10.70
2013,07,14,00,20,10.60
2013,07,14,00,21,10.60
2013,07,14,00,22,10.60
2013,07,14,00,23,10.60
2013,07,14,00,24,10.50
2013,07,14,00,25,10.50
2013,07,14,00,26,10.50
2013,07,14,00,27,10.50
2013,07,14,00,28,10.50
2013,07,14,00,29,10.40
2013,07,14,00,30,10.40
2013,07,14,00,31,10.40
2013,07,14,00,32,10.40
2013,07,14,00,33,10.40
2013,07,14,00,34,10.40
2013,07,14,00,35,10.40
2013,07,14,00,36,10.40
2013,07,14,00,37,10.40
2013,07,14,00,38,10.40
2013,07,14,00,39,10.40
2013,07,14,00,40,10.30
2013,07,14,00,41,10.30
2013,07,14,00,42,10.30
2013,07,14,00,43,10.30
2013,07,14,00,44,10.30
2013,07,14,00,45,10.30
2013,07,14,00,46,10.30
2013,07,14,00,47,10.20
2013,07,14,00,48,10.20
2013,07,14,00,49,10.20
2013,07,14,00,50,10.20
2013,07,14,00,51,10.20
2013,07,14,00,52,10.20
2013,07,14,00,53,10.20
2013,07,14,00,54,10.10
2013,07,14,00,55,10.10
2013,07,14,00,56,10.10
2013,07,14,00,57,10.10
2013,07,14,00,58,10.10
2013,07,14,00,59,10.10
2013,07,14,01,00,10.00
2013,07,14,01,01,10.00
2013,07,14,01,02,10.00
2013,07,14,01,03,10.00
2013,07,14,01,04,10.00
2013,07,14,01,05,10.00
2013,07,14,01,06,10.00
2013,07,14,01,07,10.00
2013,07,14,01,08,10.00
2013,07,14,01,09,9.90
2013,07,14,01,10,9.90
2013,07,14,01,11,9.90
2013,07,14,01,12,9.90
2013,07,14,01,13,9.90
2013,07,14,01,14,9.90
2013,07,14,01,15,9.90
2013,07,14,01,16,9.90
2013,07,14,01,17,9.90
2013,07,14,01,18,9.80
2013,07,14,01,19,9.80
2013,07,14,01,20,9.80
2013,07,14,01,21,9.80
2013,07,14,01,22,9.80
2013,07,14,01,23,9.80
2013,07,14,01,24,9.80
2013,07,14,01,25,9.80
2013,07,14,01,26,9.90
2013,07,14,01,27,9.80
2013,07,14,01,28,9.80
2013,07,14,01,29,9.80
2013,07,14,01,30,9.80
2013,07,14,01,31,9.80
2013,07,14,01,32,9.80
2013,07,14,01,33,9.80
2013,07,14,01,34,9.70
2013,07,14,01,35,9.70
2013,07,14,01,36,9.70
2013,07,14,01,37,9.70
2013,07,14,01,38,9.70
2013,07,14,01,39,9.70
2013,07,14,01,40,9.60
2013,07,14,01,41,9.60
2013,07,14,01,42,9.60
2013,07,14,01,43,9.60
2013,07,14,01,44,9.60
2013,07,14,01,45,9.60
2013,07,14,01,46,9.60
2013,07,14,01,47,9.60
2013,07,14,01,48,9.60
2013,07,14,01,49,9.60
2013,07,14,01,50,9.60
2013,07,14,01,51,9.60
2013,07,14,01,52,9.60
2013,07,14,01,53,9.60
2013,07,14,01,54,9.60
2013,07,14,01,55,9.60
2013,07,14,01,56,9.60
2013,07,14,01,57,9.50
2013,07,14,01,58,9.50
2013,07,14,01,59,9.50
2013,07,14,02,00,9.50
2013,07,14,02,01,9.50
2013,07,14,02,02,9.50
2013,07,14,02,03,9.50
2013,07,14,02,04,9.40
2013,07,14,02,05,9.40
2013,07,14,02,06,9.40
2013,07,14,02,07,9.40
2013,07,14,02,08,9.40
2013,07,14,02,09,9.40
2013,07,14,02,10,9.40
2013,07,14,02,11,9.40
2013,07,14,02,12,9.40
2013,07,14,02,13,9.40
2013,07,14,02,14,9.40
2013,07,14,02,15,9.40
2013,07,14,02,16,9.40
2013,07,14,02,17,9.40
2013,07,14,02,18,9.40
2013,07,14,02,19,9.40
2013,07,14,02,20,9.40
2013,07,14,02,21,9.40
2013,07,14,02,22,9.40
2013,07,14,02,23,9.40
2013,07,14,02,24,9.40
2013,07,14,02,25,9.40
2013,07,14,02,26,9.40
2013,07,14,02,27,9.40
2013,07,14,02,28,9.40
2013,07,14,02,29,9.40
2013,07,14,02,30,9.40
2013,07,14,02,31,9.40
2013,07,14,02,32,9.40
2013,07,14,02,33,9.40
2013,07,14,02,34,9.40
2013,07,14,02,35,9.40
2013,07,14,02,36,9.40
2013,07,14,02,37,9.30
2013,07,14,02,38,9.30
2013,07,14,02,39,9.30
2013,07,14,02,40,9.30
2013,07,14,02,41,9.30
2013,07,14,02,42,9.30
2013,07,14,02,43,9.20
2013,07,14,02,44,9.20
2013,07,14,02,45,9.20
2013,07,14,02,46,9.20
2013,07,14,02,47,9.20
2013,07,14,02,48,9.20
2013,07,14,02,49,9.20
2013,07,14,02,50,9.10
2013,07,14,02,51,9.10
2013,07,14,02,52,9.10
2013,07,14,02,53,9.10
2013,07,14,02,54,9.10
2013,07,14,02,55,9.10
2013,07,14,02,56,9.10
2013,07,14,02,57,9.10
2013,07,14,02,58,9.00
2013,07,14,02,59,9.00
2013,07,14,03,00,9.00
2013,07,14,03,01,9.00
2013,07,14,03,02,9.00
2013,07,14,03,03,9.00
2013,07,14,03,04,9.00
2013,07,14,03,05,9.00
2013,07,14,03,06,9.00
2013,07,14,03,07,8.90
2013,07,14,03,08,8.90
2013,07,14,03,09,8.90
2013,07,14,03,10,8.90
2013,07,14,03,11,8.90
2013,07,14,03,12,8.90
2013,07,14,03,13,8.90
2013,07,14,03,14,8.90
2013,07,14,03,15,8.80
2013,07,14,03,16,8.80
2013,07,14,03,17,8.80
2013,07,14,03,18,8.80
2013,07,14,03,19,8.80
2013,07,14,03,20,8.80
2013,07,14,03,21,8.80
2013,07,14,03,22,8.80
2013,07,14,03,23,8.80
2013,07,14,03,24,8.80
2013,07,14,03,25,8.80
2013,07,14,03,26,8.80
2013,07,14,03,27,8.80
2013,07,14,03,28,8.80
2013,07,14,03,29,8.80
2013,07,14,03,30,8.80
2013,07,14,03,31,8.70
2013,07,14,03,32,8.70
2013,07,14,03,33,8.70
2013,07,14,03,34,8.70
2013,07,14,03,35,8.70
2013,07,14,03,36,8.70
2013,07,14,03,37,8.70
2013,07,14,03,38,8.70
2013,07,14,03,39,8.70
2013,07,14,03,40,8.70
2013,07,14,03,41,8.70
2013,07,14,03,42,8.70
2013,07,14,03,43,8.70
2013,07,14,03,44,8.70
2013,07,14,03,45,8.70
2013,07,14,03,46,8.70
2013,07,14,03,47,8.70
2013,07,14,03,48,8.70
2013,07,14,03,49,8.60
2013,07,14,03,50,8.60
2013,07,14,03,51,8.60
2013,07,14,03,52,8.60
2013,07,14,03,53,8.60
2013,07,14,03,54,8.60
2013,07,14,03,55,8.60
2013,07,14,03,56,8.60
2013,07,14,03,57,8.60
2013,07,14,03,58,8.60
2013,07,14,03,59,8.60
2013,07,14,04,00,8.60
2013,07,14,04,01,8.60
2013,07,14,04,02,8.60
2013,07,14,04,03,8.50
2013,07,14,04,04,8.50
2013,07,14,04,05,8.50
2013,07,14,04,06,8.50
2013,07,14,04,07,8.50
2013,07,14,04,08,8.50
2013,07,14,04,09,8.50
2013,07,14,04,10,8.40
2013,07,14,04,11,8.40
2013,07,14,04,12,8.40
2013,07,14,04,13,8.40
2013,07,14,04,14,8.40
2013,07,14,04,15,8.40
2013,07,14,04,16,8.40
2013,07,14,04,17,8.40
2013,07,14,04,18,8.40
2013,07,14,04,19,8.30
2013,07,14,04,20,8.30
2013,07,14,04,21,8.30
2013,07,14,04,22,8.30
2013,07,14,04,23,8.30
2013,07,14,04,24,8.30
2013,07,14,04,25,8.30
2013,07,14,04,26,8.30
2013,07,14,04,27,8.30
2013,07,14,04,28,8.30
2013,07,14,04,29,8.30
2013,07,14,04,30,8.30
2013,07,14,04,31,8.30
2013,07,14,04,32,8.30
2013,07,14,04,33,8.20
2013,07,14,04,34,8.20
2013,07,14,04,35,8.20
2013,07,14,04,36,8.20
2013,07,14,04,37,8.20
2013,07,14,04,38,8.20
2013,07,14,04,39,8.20
2013,07,14,04,40,8.20
2013,07,14,04,41,8.20
2013,07,14,04,42,8.20
2013,07,14,04,43,8.20
2013,07,14,04,44,8.20
2013,07,14,04,45,8.20
2013,07,14,04,46,8.20
2013,07,14,04,47,8.20
2013,07,14,04,48,8.20
2013,07,14,04,49,8.20
2013,07,14,04,50,8.20
2013,07,14,04,51,8.20
2013,07,14,04,52,8.20
2013,07,14,04,53,8.20
2013,07,14,04,54,8.20
2013,07,14,04,55,8.20
2013,07,14,04,56,8.20
2013,07,14,04,57,8.20
2013,07,14,04,58,8.20
2013,07,14,04,59,8.20
2013,07,14,05,00,8.20
2013,07,14,05,01,8.20
2013,07,14,05,02,8.10
2013,07,14,05,03,8.10
2013,07,14,05,04,8.10
2013,07,14,05,05,8.10
2013,07,14,05,06,8.10
2013,07,14,05,07,8.10
2013,07,14,05,08,8.10
2013,07,14,05,09,8.10
2013,07,14,05,10,8.00
2013,07,14,05,11,8.00
2013,07,14,05,12,8.00
2013,07,14,05,13,8.00
2013,07,14,05,14,8.00
2013,07,14,05,15,7.90
2013,07,14,05,16,7.90
2013,07,14,05,17,7.90
2013,07,14,05,18,7.90
2013,07,14,05,19,7.90
2013,07,14,05,20,7.90
2013,07,14,05,21,7.90
2013,07,14,05,22,7.90
2013,07,14,05,23,7.90
2013,07,14,05,24,8.00
2013,07,14,05,25,8.00
2013,07,14,05,26,8.00
2013,07,14,05,27,8.00
2013,07,14,05,28,8.00
2013,07,14,05,29,8.10
2013,07,14,05,30,8.10
2013,07,14,05,31,8.10
2013,07,14,05,32,8.10
2013,07,14,05,33,8.10
2013,07,14,05,34,8.10
2013,07,14,05,35,8.10
2013,07,14,05,36,8.10
2013,07,14,05,37,8.10
2013,07,14,05,38,8.00
2013,07,14,05,39,8.00
2013,07,14,05,40,8.00
2013,07,14,05,41,8.00
2013,07,14,05,42,8.00
2013,07,14,05,43,8.00
2013,07,14,05,44,8.00
2013,07,14,05,45,8.00
2013,07,14,05,46,8.00
2013,07,14,05,47,8.00
2013,07,14,05,48,7.90
2013,07,14,05,49,8.00
2013,07,14,05,50,8.00
2013,07,14,05,51,8.00
2013,07,14,05,52,7.90
2013,07,14,05,53,8.00
2013,07,14,05,54,8.00
2013,07,14,05,55,8.00
2013,07,14,05,56,8.00
2013,07,14,05,57,8.00
2013,07,14,05,58,7.90
2013,07,14,05,59,7.90
2013,07,14,06,00,7.90
2013,07,14,06,01,7.90
2013,07,14,06,02,7.90
2013,07,14,06,03,8.00
2013,07,14,06,04,8.00
2013,07,14,06,05,8.00
2013,07,14,06,06,8.00
2013,07,14,06,07,8.00
2013,07,14,06,08,8.10
2013,07,14,06,09,8.10
2013,07,14,06,10,8.10
2013,07,14,06,11,8.10
2013,07,14,06,12,8.10
2013,07,14,06,13,8.10
2013,07,14,06,14,8.10
2013,07,14,06,15,8.10
2013,07,14,06,16,8.10
2013,07,14,06,17,8.10
2013,07,14,06,18,8.20
2013,07,14,06,19,8.20
2013,07,14,06,20,8.20
2013,07,14,06,21,8.20
2013,07,14,06,22,8.20
2013,07,14,06,23,8.20
2013,07,14,06,24,8.30
2013,07,14,06,25,8.30
2013,07,14,06,26,8.30
2013,07,14,06,27,8.30
2013,07,14,06,28,8.30
2013,07,14,06,29,8.30
2013,07,14,06,30,8.40
2013,07,14,06,31,8.40
2013,07,14,06,32,8.40
2013,07,14,06,33,8.50
2013,07,14,06,34,8.50
2013,07,14,06,35,8.50
2013,07,14,06,36,8.60
2013,07,14,06,37,8.60
2013,07,14,06,38,8.60
2013,07,14,06,39,8.70
2013,07,14,06,40,8.70
2013,07,14,06,41,8.70
2013,07,14,06,42,8.80
2013,07,14,06,43,8.80
2013,07,14,06,44,8.90
2013,07,14,06,45,8.90
2013,07,14,06,46,8.90
2013,07,14,06,47,9.00
2013,07,14,06,48,9.00
2013,07,14,06,49,9.00
2013,07,14,06,50,9.10
2013,07,14,06,51,9.10
2013,07,14,06,52,9.10
2013,07,14,06,53,9.10
2013,07,14,06,54,9.20
2013,07,14,06,55,9.20
2013,07,14,06,56,9.20
2013,07,14,06,57,9.30
2013,07,14,06,58,9.30
2013,07,14,06,59,9.30
2013,07,14,07,00,9.40
2013,07,14,07,01,9.40
2013,07,14,07,02,9.50
2013,07,14,07,03,9.60
2013,07,14,07,04,9.60
2013,07,14,07,05,9.70
2013,07,14,07,06,9.70
2013,07,14,07,07,9.80
2013,07,14,07,08,9.80
2013,07,14,07,09,9.90
2013,07,14,07,10,9.90
2013,07,14,07,11,10.00
2013,07,14,07,12,10.00
2013,07,14,07,13,10.10
2013,07,14,07,14,10.10
2013,07,14,07,15,10.20
2013,07,14,07,16,10.30
2013,07,14,07,17,10.30
2013,07,14,07,18,10.40
2013,07,14,07,19,10.50
2013,07,14,07,20,10.50
2013,07,14,07,21,10.60
2013,07,14,07,22,10.60
2013,07,14,07,23,10.60
2013,07,14,07,24,10.70
2013,07,14,07,25,10.70
2013,07,14,07,26,10.70
2013,07,14,07,27,10.80
2013,07,14,07,28,10.80
2013,07,14,07,29,10.90
2013,07,14,07,30,10.90
2013,07,14,07,31,11.00
2013,07,14,07,32,11.00
2013,07,14,07,33,11.10
2013,07,14,07,34,11.10
2013,07,14,07,35,11.10
2013,07,14,07,36,11.20
2013,07,14,07,37,11.20
2013,07,14,07,38,11.30
2013,07,14,07,39,11.30
2013,07,14,07,40,11.40
2013,07,14,07,41,11.40
2013,07,14,07,42,11.50
2013,07,14,07,43,11.50
2013,07,14,07,44,11.50
2013,07,14,07,45,11.50
2013,07,14,07,46,11.60
2013,07,14,07,47,11.60
2013,07,14,07,48,11.60
2013,07,14,07,49,11.60
2013,07,14,07,50,11.60
2013,07,14,07,51,11.60
2013,07,14,07,52,11.60
2013,07,14,07,53,11.70
2013,07,14,07,54,11.70
2013,07,14,07,55,11.70
2013,07,14,07,56,11.70
2013,07,14,07,57,11.80
2013,07,14,07,58,11.80
2013,07,14,07,59,11.80
2013,07,14,08,00,11.80
2013,07,14,08,01,11.80
2013,07,14,08,02,11.80
2013,07,14,08,03,11.90
2013,07,14,08,04,11.90
2013,07,14,08,05,11.90
2013,07,14,08,06,11.90
2013,07,14,08,07,11.90
2013,07,14,08,08,11.90
2013,07,14,08,09,12.00
2013,07,14,08,10,12.00
2013,07,14,08,11,12.10
2013,07,14,08,12,12.10
2013,07,14,08,13,12.20
2013,07,14,08,14,12.20
2013,07,14,08,15,12.20
2013,07,14,08,16,12.20
2013,07,14,08,17,12.20
2013,07,14,08,18,12.20
2013,07,14,08,19,12.20
2013,07,14,08,20,12.20
2013,07,14,08,21,12.20
2013,07,14,08,22,12.20
2013,07,14,08,23,12.10
2013,07,14,08,24,12.10
2013,07,14,08,25,12.10
2013,07,14,08,26,12.10
2013,07,14,08,27,12.10
2013,07,14,08,28,12.10
2013,07,14,08,29,12.10
2013,07,14,08,30,12.10
2013,07,14,08,31,12.00
2013,07,14,08,32,12.00
2013,07,14,08,33,11.90
2013,07,14,08,34,11.90
2013,07,14,08,35,11.90
2013,07,14,08,36,11.90
2013,07,14,08,37,11.90
2013,07,14,08,38,11.90
2013,07,14,08,39,11.90
2013,07,14,08,40,11.80
2013,07,14,08,41,11.90
2013,07,14,08,42,11.90
2013,07,14,08,43,12.00
2013,07,14,08,44,12.00
2013,07,14,08,45,12.10
2013,07,14,08,46,12.10
2013,07,14,08,47,12.10
2013,07,14,08,48,12.10
2013,07,14,08,49,12.20
2013,07,14,08,50,12.20
2013,07,14,08,51,12.30
2013,07,14,08,52,12.30
2013,07,14,08,53,12.30
2013,07,14,08,54,12.40
2013,07,14,08,55,12.50
2013,07,14,08,56,12.60
2013,07,14,08,57,12.60
2013,07,14,08,58,12.70
2013,07,14,08,59,12.80
2013,07,14,09,00,12.80
2013,07,14,09,01,12.90
2013,07,14,09,02,12.90
2013,07,14,09,03,13.00
2013,07,14,09,04,13.10
2013,07,14,09,05,13.10
2013,07,14,09,06,13.20
2013,07,14,09,07,13.20
2013,07,14,09,08,13.20
2013,07,14,09,09,13.20
2013,07,14,09,10,13.20
2013,07,14,09,11,13.20
2013,07,14,09,12,13.20
2013,07,14,09,13,13.30
2013,07,14,09,14,13.30
2013,07,14,09,15,13.40
2013,07,14,09,16,13.50
2013,07,14,09,17,13.50
2013,07,14,09,18,13.60
2013,07,14,09,19,13.60
2013,07,14,09,20,13.60
2013,07,14,09,21,13.60
2013,07,14,09,22,13.60
2013,07,14,09,23,13.60
2013,07,14,09,24,13.50
2013,07,14,09,25,13.50
2013,07,14,09,26,13.40
2013,07,14,09,27,13.30
2013,07,14,09,28,13.20
2013,07,14,09,29,13.10
2013,07,14,09,30,13.00
2013,07,14,09,31,12.90
2013,07,14,09,32,12.90
2013,07,14,09,33,12.90
2013,07,14,09,34,12.80
2013,07,14,09,35,12.80
2013,07,14,09,36,12.80
2013,07,14,09,37,12.80
2013,07,14,09,38,12.80
2013,07,14,09,39,12.80
2013,07,14,09,40,12.80
2013,07,14,09,41,12.80
2013,07,14,09,42,12.80
2013,07,14,09,43,12.70
2013,07,14,09,44,12.70
2013,07,14,09,45,12.70
2013,07,14,09,46,12.60
2013,07,14,09,47,12.60
2013,07,14,09,48,12.50
2013,07,14,09,49,12.50
2013,07,14,09,50,12.40
2013,07,14,09,51,12.40
2013,07,14,09,52,12.40
2013,07,14,09,53,12.50
2013,07,14,09,54,12.50
2013,07,14,09,55,12.70
2013,07,14,09,56,12.80
2013,07,14,09,57,12.90
2013,07,14,09,58,13.00
2013,07,14,09,59,13.10
2013,07,14,10,00,13.20
2013,07,14,10,01,13.30
2013,07,14,10,02,13.30
2013,07,14,10,03,13.30
2013,07,14,10,04,13.30
2013,07,14,10,05,13.30
2013,07,14,10,06,13.30
2013,07,14,10,07,13.30
2013,07,14,10,08,13.30
2013,07,14,10,09,13.30
2013,07,14,10,10,13.40
2013,07,14,10,11,13.40
2013,07,14,10,12,13.30
2013,07,14,10,13,13.30
2013,07,14,10,14,13.30
2013,07,14,10,15,13.30
2013,07,14,10,16,13.30
2013,07,14,10,17,13.40
2013,07,14,10,18,13.50
2013,07,14,10,19,13.60
2013,07,14,10,20,13.70
2013,07,14,10,21,13.80
2013,07,14,10,22,13.90
2013,07,14,10,23,14.00
2013,07,14,10,24,14.10
2013,07,14,10,25,14.10
2013,07,14,10,26,14.10
2013,07,14,10,27,14.20
2013,07,14,10,28,14.20
2013,07,14,10,29,14.30
2013,07,14,10,30,14.30
2013,07,14,10,31,14.30
2013,07,14,10,32,14.20
2013,07,14,10,33,14.30
2013,07,14,10,34,14.30
2013,07,14,10,35,14.30
2013,07,14,10,36,14.40
2013,07,14,10,37,14.40
2013,07,14,10,38,14.30
2013,07,14,10,39,14.40
2013,07,14,10,40,14.40
2013,07,14,10,41,14.40
2013,07,14,10,42,14.40
2013,07,14,10,43,14.50
2013,07,14,10,44,14.50
2013,07,14,10,45,14.60
2013,07,14,10,46,14.60
2013,07,14,10,47,14.70
2013,07,14,10,48,14.80
2013,07,14,10,49,14.80
2013,07,14,10,50,14.90
2013,07,14,10,51,15.00
2013,07,14,10,52,15.10
2013,07,14,10,53,15.20
2013,07,14,10,54,15.30
2013,07,14,10,55,15.40
2013,07,14,10,56,15.40
2013,07,14,10,57,15.30
2013,07,14,10,58,15.30
2013,07,14,10,59,15.30
2013,07,14,11,00,15.30
2013,07,14,11,01,15.30
2013,07,14,11,02,15.40
2013,07,14,11,03,15.40
2013,07,14,11,04,15.30
2013,07,14,11,05,15.30
2013,07,14,11,06,15.30
2013,07,14,11,07,15.30
2013,07,14,11,08,15.30
2013,07,14,11,09,15.30
2013,07,14,11,10,15.30
2013,07,14,11,11,15.30
2013,07,14,11,12,15.40
2013,07,14,11,13,15.50
2013,07,14,11,14,15.60
2013,07,14,11,15,15.60
2013,07,14,11,16,15.60
2013,07,14,11,17,15.60
2013,07,14,11,18,15.60
2013,07,14,11,19,15.70
2013,07,14,11,20,15.70
2013,07,14,11,21,15.70
2013,07,14,11,22,15.60
2013,07,14,11,23,15.60
2013,07,14,11,24,15.70
2013,07,14,11,25,15.70
2013,07,14,11,26,15.80
2013,07,14,11,27,15.80
2013,07,14,11,28,15.80
2013,07,14,11,29,15.90
2013,07,14,11,30,15.90
2013,07,14,11,31,15.90
2013,07,14,11,32,15.90
2013,07,14,11,33,15.80
2013,07,14,11,34,15.80
2013,07,14,11,35,15.80
2013,07,14,11,36,15.80
2013,07,14,11,37,15.80
2013,07,14,11,38,15.90
2013,07,14,11,39,15.90
2013,07,14,11,40,15.90
2013,07,14,11,41,16.00
2013,07,14,11,42,16.00
2013,07,14,11,43,16.10
2013,07,14,11,44,16.20
2013,07,14,11,45,16.30
2013,07,14,11,46,16.30
2013,07,14,11,47,16.40
2013,07,14,11,48,16.50
2013,07,14,11,49,16.50
2013,07,14,11,50,16.60
2013,07,14,11,51,16.60
2013,07,14,11,52,16.50
2013,07,14,11,53,16.50
2013,07,14,11,54,16.50
2013,07,14,11,55,16.50
2013,07,14,11,56,16.50
2013,07,14,11,57,16.40
2013,07,14,11,58,16.40
2013,07,14,11,59,16.40
2013,07,14,12,00,16.30
2013,07,14,12,01,16.30
2013,07,14,12,02,16.30
2013,07,14,12,03,16.20
2013,07,14,12,04,16.20
2013,07,14,12,05,16.00
2013,07,14,12,06,16.00
2013,07,14,12,07,15.90
2013,07,14,12,08,15.90
2013,07,14,12,09,15.90
2013,07,14,12,10,15.90
2013,07,14,12,11,15.90
2013,07,14,12,12,15.90
2013,07,14,12,13,15.90
2013,07,14,12,14,15.90
2013,07,14,12,15,15.90
2013,07,14,12,16,15.90
2013,07,14,12,17,15.90
2013,07,14,12,18,16.00
2013,07,14,12,19,16.00
2013,07,14,12,20,16.00
2013,07,14,12,21,16.00
2013,07,14,12,22,16.00
2013,07,14,12,23,16.00
2013,07,14,12,24,16.00
2013,07,14,12,25,16.00
2013,07,14,12,26,16.00
2013,07,14,12,27,16.00
2013,07,14,12,28,16.10
2013,07,14,12,29,16.00
2013,07,14,12,30,16.00
2013,07,14,12,31,16.00
2013,07,14,12,32,16.00
2013,07,14,12,33,16.10
2013,07,14,12,34,16.10
2013,07,14,12,35,16.10
2013,07,14,12,36,16.20
2013,07,14,12,37,16.20
2013,07,14,12,38,16.30
2013,07,14,12,39,16.40
2013,07,14,12,40,16.60
2013,07,14,12,41,16.70
2013,07,14,12,42,16.80
2013,07,14,12,43,16.90
2013,07,14,12,44,17.00
2013,07,14,12,45,17.20
2013,07,14,12,46,17.30
2013,07,14,12,47,17.40
2013,07,14,12,48,17.50
2013,07,14,12,49,17.60
2013,07,14,12,50,17.70
2013,07,14,12,51,17.80
2013,07,14,12,52,18.00
2013,07,14,12,53,18.10
2013,07,14,12,54,18.30
2013,07,14,12,55,18.50
2013,07,14,12,56,18.60
2013,07,14,12,57,18.80
2013,07,14,12,58,18.90
2013,07,14,12,59,19.10
2013,07,14,13,00,19.20
2013,07,14,13,01,19.30
2013,07,14,13,02,19.40
2013,07,14,13,03,19.50
2013,07,14,13,04,19.50
2013,07,14,13,05,19.50
2013,07,14,13,06,19.60
2013,07,14,13,07,19.60
2013,07,14,13,08,19.60
2013,07,14,13,09,19.60
2013,07,14,13,10,19.50
2013,07,14,13,11,19.60
2013,07,14,13,12,19.60
2013,07,14,13,13,19.50
2013,07,14,13,14,19.50
2013,07,14,13,15,19.50
2013,07,14,13,16,19.40
2013,07,14,13,17,19.40
2013,07,14,13,18,19.40
2013,07,14,13,19,19.40
2013,07,14,13,20,19.40
2013,07,14,13,21,19.30
2013,07,14,13,22,19.30
2013,07,14,13,23,19.30
2013,07,14,13,24,19.30
2013,07,14,13,25,19.30
2013,07,14,13,26,19.30
2013,07,14,13,27,19.20
2013,07,14,13,28,19.20
2013,07,14,13,29,19.20
2013,07,14,13,30,19.20
2013,07,14,13,31,19.20
2013,07,14,13,32,19.10
2013,07,14,13,33,19.10
2013,07,14,13,34,19.10
2013,07,14,13,35,19.10
2013,07,14,13,36,19.10
2013,07,14,13,37,19.10
2013,07,14,13,38,19.20
2013,07,14,13,39,19.30
2013,07,14,13,40,19.40
2013,07,14,13,41,19.50
2013,07,14,13,42,19.60
2013,07,14,13,43,19.70
2013,07,14,13,44,19.80
2013,07,14,13,45,19.90
2013,07,14,13,46,20.00
2013,07,14,13,47,20.10
2013,07,14,13,48,20.20
2013,07,14,13,49,20.30
2013,07,14,13,50,20.40
2013,07,14,13,51,20.50
2013,07,14,13,52,20.60
2013,07,14,13,53,20.70
2013,07,14,13,54,20.80
2013,07,14,13,55,20.80
2013,07,14,13,56,20.90
2013,07,14,13,57,20.90
2013,07,14,13,58,21.10
2013,07,14,13,59,21.20
2013,07,14,14,00,21.30
2013,07,14,14,01,21.50
2013,07,14,14,02,21.60
2013,07,14,14,03,21.80
2013,07,14,14,04,22.00
2013,07,14,14,05,22.20
2013,07,14,14,06,22.40
2013,07,14,14,07,22.50
2013,07,14,14,08,22.70
2013,07,14,14,09,22.70
2013,07,14,14,10,22.80
2013,07,14,14,11,22.90
2013,07,14,14,12,22.90
2013,07,14,14,13,22.90
2013,07,14,14,14,22.80
2013,07,14,14,15,22.80
2013,07,14,14,16,22.80
2013,07,14,14,17,22.80
2013,07,14,14,18,22.80
2013,07,14,14,19,22.90
2013,07,14,14,20,22.90
2013,07,14,14,21,22.90
2013,07,14,14,22,22.90
2013,07,14,14,23,22.90
2013,07,14,14,24,23.00
2013,07,14,14,25,23.00
2013,07,14,14,26,23.10
2013,07,14,14,27,23.20
2013,07,14,14,28,23.20
2013,07,14,14,29,23.30
2013,07,14,14,30,23.30
2013,07,14,14,31,23.30
2013,07,14,14,32,23.30
2013,07,14,14,33,23.20
2013,07,14,14,34,23.10
2013,07,14,14,35,23.10
2013,07,14,14,36,23.10
2013,07,14,14,37,23.10
2013,07,14,14,38,23.20
2013,07,14,14,39,23.20
2013,07,14,14,40,23.20
2013,07,14,14,41,23.20
2013,07,14,14,42,23.20
2013,07,14,14,43,23.20
2013,07,14,14,44,23.10
2013,07,14,14,45,23.10
2013,07,14,14,46,23.10
2013,07,14,14,47,23.00
2013,07,14,14,48,23.10
2013,07,14,14,49,23.00
2013,07,14,14,50,23.00
2013,07,14,14,51,23.10
2013,07,14,14,52,23.00
2013,07,14,14,53,23.00
2013,07,14,14,54,23.00
2013,07,14,14,55,23.10
2013,07,14,14,56,23.20
2013,07,14,14,57,23.20
2013,07,14,14,58,23.20
2013,07,14,14,59,23.20
2013,07,14,15,00,23.10
2013,07,14,15,01,23.10
2013,07,14,15,02,23.10
2013,07,14,15,03,23.10
2013,07,14,15,04,23.20
2013,07,14,15,05,23.20
2013,07,14,15,06,23.30
2013,07,14,15,07,23.30
2013,07,14,15,08,23.30
2013,07,14,15,09,23.30
2013,07,14,15,10,23.30
2013,07,14,15,11,23.30
2013,07,14,15,12,23.30
2013,07,14,15,13,23.30
2013,07,14,15,14,23.30
2013,07,14,15,15,23.30
2013,07,14,15,16,23.30
2013,07,14,15,17,23.30
2013,07,14,15,18,23.30
2013,07,14,15,19,23.30
2013,07,14,15,20,23.30
2013,07,14,15,21,23.30
2013,07,14,15,22,23.30
2013,07,14,15,23,23.30
2013,07,14,15,24,23.40
2013,07,14,15,25,23.40
2013,07,14,15,26,23.40
2013,07,14,15,27,23.40
2013,07,14,15,28,23.30
2013,07,14,15,29,23.20
2013,07,14,15,30,23.10
2013,07,14,15,31,23.10
2013,07,14,15,32,23.10
2013,07,14,15,33,23.10
2013,07,14,15,34,23.20
2013,07,14,15,35,23.20
2013,07,14,15,36,23.20
2013,07,14,15,37,23.10
2013,07,14,15,38,23.00
2013,07,14,15,39,22.90
2013,07,14,15,40,22.90
2013,07,14,15,41,22.90
2013,07,14,15,42,23.00
2013,07,14,15,43,23.00
2013,07,14,15,44,23.00
2013,07,14,15,45,23.10
2013,07,14,15,46,23.10
2013,07,14,15,47,23.10
2013,07,14,15,48,23.10
2013,07,14,15,49,23.00
2013,07,14,15,50,23.00
2013,07,14,15,51,22.90
2013,07,14,15,52,23.00
2013,07,14,15,53,23.10
2013,07,14,15,54,23.10
2013,07,14,15,55,23.10
2013,07,14,15,56,23.20
2013,07,14,15,57,23.10
2013,07,14,15,58,23.10
2013,07,14,15,59,23.10
2013,07,14,16,00,23.10
2013,07,14,16,01,23.10
2013,07,14,16,02,23.10
2013,07,14,16,03,23.10
2013,07,14,16,04,23.10
2013,07,14,16,05,23.10
2013,07,14,16,06,23.10
2013,07,14,16,07,23.10
2013,07,14,16,08,23.10
2013,07,14,16,09,23.10
2013,07,14,16,10,23.10
2013,07,14,16,11,23.10
2013,07,14,16,12,23.10
2013,07,14,16,13,23.20
2013,07,14,16,14,23.20
2013,07,14,16,15,23.10
2013,07,14,16,16,23.10
2013,07,14,16,17,23.10
2013,07,14,16,18,23.20
2013,07,14,16,19,23.20
2013,07,14,16,20,23.20
2013,07,14,16,21,23.20
2013,07,14,16,22,23.20
2013,07,14,16,23,23.10
2013,07,14,16,24,23.10
2013,07,14,16,25,23.00
2013,07,14,16,26,23.00
2013,07,14,16,27,23.00
2013,07,14,16,28,23.10
2013,07,14,16,29,23.00
2013,07,14,16,30,23.00
2013,07,14,16,31,23.00
2013,07,14,16,32,23.00
2013,07,14,16,33,23.10
2013,07,14,16,34,23.00
2013,07,14,16,35,22.90
2013,07,14,16,36,22.80
2013,07,14,16,37,22.70
2013,07,14,16,38,22.70
2013,07,14,16,39,22.60
2013,07,14,16,40,22.60
2013,07,14,16,41,22.70
2013,07,14,16,42,22.70
2013,07,14,16,43,22.80
2013,07,14,16,44,22.80
2013,07,14,16,45,22.90
2013,07,14,16,46,23.00
2013,07,14,16,47,23.10
2013,07,14,16,48,23.10
2013,07,14,16,49,23.10
2013,07,14,16,50,23.10
2013,07,14,16,51,23.10
2013,07,14,16,52,23.20
2013,07,14,16,53,23.20
2013,07,14,16,54,23.30
2013,07,14,16,55,23.30
2013,07,14,16,56,23.40
2013,07,14,16,57,23.40
2013,07,14,16,58,23.20
2013,07,14,16,59,23.10
2013,07,14,17,00,22.90
2013,07,14,17,01,22.70
2013,07,14,17,02,22.60
2013,07,14,17,03,22.60
2013,07,14,17,04,22.60
2013,07,14,17,05,22.50
2013,07,14,17,06,22.50
2013,07,14,17,07,22.50
2013,07,14,17,08,22.40
2013,07,14,17,09,22.40
2013,07,14,17,10,22.30
2013,07,14,17,11,22.30
2013,07,14,17,12,22.30
2013,07,14,17,13,22.30
2013,07,14,17,14,22.30
2013,07,14,17,15,22.30
2013,07,14,17,16,22.30
2013,07,14,17,17,22.20
2013,07,14,17,18,22.20
2013,07,14,17,19,22.20
2013,07,14,17,20,22.10
2013,07,14,17,21,22.10
2013,07,14,17,22,22.10
2013,07,14,17,23,22.10
2013,07,14,17,24,22.10
2013,07,14,17,25,22.10
2013,07,14,17,26,22.10
2013,07,14,17,27,22.00
2013,07,14,17,28,22.00
2013,07,14,17,29,22.00
2013,07,14,17,30,22.00
2013,07,14,17,31,22.10
2013,07,14,17,32,22.20
2013,07,14,17,33,22.20
2013,07,14,17,34,22.30
2013,07,14,17,35,22.20